Year,Month,Day,Hour,Minute,Value (Times are PST for temperature in C)
2015,04,21,10,58,14.80
2015,04,21,10,59,14.80
2015,04,21,11,00,14.80
2015,04,21,11,01,14.80
2015,04,21,11,02,14.90
2015,04,21,11,03,14.90
2015,04,21,11,04,15.00
2015,04,21,11,05,15.00
2015,04,21,11,06,15.10
2015,04,21,11,07,15.10
2015,04,21,11,08,15.10
2015,04,21,11,09,15.10
2015,04,21,11,10,15.10
2015,04,21,11,11,15.10
2015,04,21,11,12,15.10
2015,04,21,11,13,15.10
2015,04,21,11,14,15.10
2015,04,21,11,15,15.00
2015,04,21,11,16,15.00
2015,04,21,11,17,15.10
2015,04,21,11,18,15.20
2015,04,21,11,19,15.20
2015,04,21,11,20,15.20
2015,04,21,11,21,15.20
2015,04,21,11,22,15.30
2015,04,21,11,23,15.40
2015,04,21,11,24,15.50
2015,04,21,11,25,15.60
2015,04,21,11,26,15.70
2015,04,21,11,27,15.80
2015,04,21,11,28,15.80
2015,04,21,11,29,15.90
2015,04,21,11,30,15.90
2015,04,21,11,31,15.80
2015,04,21,11,32,15.80
2015,04,21,11,33,15.80
2015,04,21,11,34,15.80
2015,04,21,11,35,15.80
2015,04,21,11,36,15.80
2015,04,21,11,37,15.80
2015,04,21,11,38,15.80
2015,04,21,11,39,15.80
2015,04,21,11,40,15.80
2015,04,21,11,41,15.80
2015,04,21,11,42,15.90
2015,04,21,11,43,15.90
2015,04,21,11,44,15.90
2015,04,21,11,45,16.00
2015,04,21,11,46,16.10
2015,04,21,11,47,16.20
2015,04,21,11,48,16.20
2015,04,21,11,49,16.20
2015,04,21,11,50,16.30
2015,04,21,11,51,16.30
2015,04,21,11,52,16.40
2015,04,21,11,53,16.40
2015,04,21,11,54,16.40
2015,04,21,11,55,16.40
2015,04,21,11,56,16.40
2015,04,21,11,57,16.50
2015,04,21,11,58,16.60
2015,04,21,11,59,16.60
2015,04,21,12,00,16.70
2015,04,21,12,01,16.80
2015,04,21,12,02,16.80
2015,04,21,12,03,16.90
2015,04,21,12,04,16.90
2015,04,21,12,05,17.00
2015,04,21,12,06,17.10
2015,04,21,12,07,17.20
2015,04,21,12,08,17.30
2015,04,21,12,09,17.40
2015,04,21,12,10,17.40
2015,04,21,12,11,17.50
2015,04,21,12,12,17.70
2015,04,21,12,13,17.70
2015,04,21,12,14,17.80
2015,04,21,12,15,17.70
2015,04,21,12,16,17.60
2015,04,21,12,17,17.50
2015,04,21,12,18,17.40
2015,04,21,12,19,17.30
2015,04,21,12,20,17.30
2015,04,21,12,21,17.30
2015,04,21,12,22,17.30
2015,04,21,12,23,17.30
2015,04,21,12,24,17.30
2015,04,21,12,25,17.30
2015,04,21,12,26,17.30
2015,04,21,12,27,17.30
2015,04,21,12,28,17.30
2015,04,21,12,29,17.30
2015,04,21,12,30,17.30
2015,04,21,12,31,17.30
2015,04,21,12,32,17.40
2015,04,21,12,33,17.50
2015,04,21,12,34,17.50
2015,04,21,12,35,17.50
2015,04,21,12,36,17.50
2015,04,21,12,37,17.40
2015,04,21,12,38,17.40
2015,04,21,12,39,17.50
2015,04,21,12,40,17.50
2015,04,21,12,41,17.60
2015,04,21,12,42,17.70
2015,04,21,12,43,17.70
2015,04,21,12,44,17.70
2015,04,21,12,45,17.80
2015,04,21,12,46,17.90
2015,04,21,12,47,17.90
2015,04,21,12,48,18.10
2015,04,21,12,49,18.10
2015,04,21,12,50,18.10
2015,04,21,12,51,18.10
2015,04,21,12,52,18.10
2015,04,21,12,53,18.10
2015,04,21,12,54,18.10
2015,04,21,12,55,18.20
2015,04,21,12,56,18.30
2015,04,21,12,57,18.40
2015,04,21,12,58,18.50
2015,04,21,12,59,18.50
2015,04,21,13,00,18.60
2015,04,21,13,01,18.70
2015,04,21,13,02,18.80
2015,04,21,13,03,18.80
2015,04,21,13,04,18.70
2015,04,21,13,05,18.70
2015,04,21,13,06,18.60
2015,04,21,13,07,18.60
2015,04,21,13,08,18.60
2015,04,21,13,09,18.50
2015,04,21,13,10,18.40
2015,04,21,13,11,18.30
2015,04,21,13,12,18.20
2015,04,21,13,13,18.00
2015,04,21,13,14,17.90
2015,04,21,13,15,17.80
2015,04,21,13,16,17.70
2015,04,21,13,17,17.60
2015,04,21,13,18,17.50
2015,04,21,13,19,17.60
2015,04,21,13,20,17.60
2015,04,21,13,21,17.50
2015,04,21,13,22,17.50
2015,04,21,13,23,17.40
2015,04,21,13,24,17.40
2015,04,21,13,25,17.30
2015,04,21,13,26,17.20
2015,04,21,13,27,17.10
2015,04,21,13,28,17.00
2015,04,21,13,29,17.00
2015,04,21,13,30,16.90
2015,04,21,13,31,16.90
2015,04,21,13,32,16.90
2015,04,21,13,33,17.00
2015,04,21,13,34,17.00
2015,04,21,13,35,17.10
2015,04,21,13,36,17.20
2015,04,21,13,37,17.30
2015,04,21,13,38,17.30
2015,04,21,13,39,17.40
2015,04,21,13,40,17.40
2015,04,21,13,41,17.50
2015,04,21,13,42,17.50
2015,04,21,13,43,17.50
2015,04,21,13,44,17.40
2015,04,21,13,45,17.40
2015,04,21,13,46,17.40
2015,04,21,13,47,17.40
2015,04,21,13,48,17.30
2015,04,21,13,49,17.20
2015,04,21,13,50,17.10
2015,04,21,13,51,17.10
2015,04,21,13,52,17.10
2015,04,21,13,53,17.00
2015,04,21,13,54,17.00
2015,04,21,13,55,17.00
2015,04,21,13,56,16.90
2015,04,21,13,57,16.90
2015,04,21,13,58,16.90
2015,04,21,13,59,16.90
2015,04,21,14,00,16.80
2015,04,21,14,01,16.70
2015,04,21,14,02,16.70
2015,04,21,14,03,16.60
2015,04,21,14,04,16.60
2015,04,21,14,05,16.60
2015,04,21,14,06,16.60
2015,04,21,14,07,16.60
2015,04,21,14,08,16.60
2015,04,21,14,09,16.70
2015,04,21,14,10,16.70
2015,04,21,14,11,16.70
2015,04,21,14,12,16.70
2015,04,21,14,13,16.70
2015,04,21,14,14,16.70
2015,04,21,14,15,16.70
2015,04,21,14,16,16.60
2015,04,21,14,17,16.60
2015,04,21,14,18,16.60
2015,04,21,14,19,16.60
2015,04,21,14,20,16.60
2015,04,21,14,21,16.60
2015,04,21,14,22,16.60
2015,04,21,14,23,16.60
2015,04,21,14,24,16.60
2015,04,21,14,25,16.60
2015,04,21,14,26,16.50
2015,04,21,14,27,16.40
2015,04,21,14,28,16.40
2015,04,21,14,29,16.30
2015,04,21,14,30,16.30
2015,04,21,14,31,16.20
2015,04,21,14,32,16.20
2015,04,21,14,33,16.10
2015,04,21,14,34,16.00
2015,04,21,14,35,15.90
2015,04,21,14,36,15.80
2015,04,21,14,37,15.70
2015,04,21,14,38,15.70
2015,04,21,14,39,15.60
2015,04,21,14,40,15.50
2015,04,21,14,41,15.40
2015,04,21,14,42,15.40
2015,04,21,14,43,15.40
2015,04,21,14,44,15.40
2015,04,21,14,45,15.40
2015,04,21,14,46,15.40
2015,04,21,14,47,15.40
2015,04,21,14,48,15.50
2015,04,21,14,49,15.50
2015,04,21,14,50,15.50
2015,04,21,14,51,15.40
2015,04,21,14,52,15.40
2015,04,21,14,53,15.40
2015,04,21,14,54,15.30
2015,04,21,14,55,15.30
2015,04,21,14,56,15.30
2015,04,21,14,57,15.30
2015,04,21,14,58,15.30
2015,04,21,14,59,15.30
2015,04,21,15,00,15.20
2015,04,21,15,01,15.20
2015,04,21,15,02,15.20
2015,04,21,15,03,15.20
2015,04,21,15,04,15.20
2015,04,21,15,05,15.20
2015,04,21,15,06,15.20
2015,04,21,15,07,15.30
2015,04,21,15,08,15.30
2015,04,21,15,09,15.30
2015,04,21,15,10,15.30
2015,04,21,15,11,15.30
2015,04,21,15,12,15.30
2015,04,21,15,13,15.30
2015,04,21,15,14,15.30
2015,04,21,15,15,15.30
2015,04,21,15,16,15.20
2015,04,21,15,17,15.20
2015,04,21,15,18,15.10
2015,04,21,15,19,15.00
2015,04,21,15,20,14.90
2015,04,21,15,21,14.70
2015,04,21,15,22,14.40
2015,04,21,15,23,14.20
2015,04,21,15,24,14.10
2015,04,21,15,25,14.00
2015,04,21,15,26,13.90
2015,04,21,15,27,13.80
2015,04,21,15,28,13.70
2015,04,21,15,29,13.70
2015,04,21,15,30,13.60
2015,04,21,15,31,13.60
2015,04,21,15,32,13.50
2015,04,21,15,33,13.50
2015,04,21,15,34,13.40
2015,04,21,15,35,13.40
2015,04,21,15,36,13.40
2015,04,21,15,37,13.40
2015,04,21,15,38,13.40
2015,04,21,15,39,13.40
2015,04,21,15,40,13.40
2015,04,21,15,41,13.40
2015,04,21,15,42,13.30
2015,04,21,15,43,13.30
2015,04,21,15,44,13.30
2015,04,21,15,45,13.20
2015,04,21,15,46,13.20
2015,04,21,15,47,13.10
2015,04,21,15,48,13.10
2015,04,21,15,49,13.00
2015,04,21,15,50,13.00
2015,04,21,15,51,12.90
2015,04,21,15,52,12.90
2015,04,21,15,53,12.80
2015,04,21,15,54,12.80
2015,04,21,15,55,12.80
2015,04,21,15,56,12.80
2015,04,21,15,57,12.70
2015,04,21,15,58,12.60
2015,04,21,15,59,12.50
2015,04,21,16,00,12.50
2015,04,21,16,01,12.30
2015,04,21,16,02,12.30
2015,04,21,16,03,12.20
2015,04,21,16,04,12.10
2015,04,21,16,05,12.10
2015,04,21,16,06,12.00
2015,04,21,16,07,11.90
2015,04,21,16,08,11.90
2015,04,21,16,09,11.80
2015,04,21,16,10,11.70
2015,04,21,16,11,11.70
2015,04,21,16,12,11.70
2015,04,21,16,13,11.60
2015,04,21,16,14,11.60
2015,04,21,16,15,11.60
2015,04,21,16,16,11.60
2015,04,21,16,17,11.60
2015,04,21,16,18,11.60
2015,04,21,16,19,11.60
2015,04,21,16,20,11.60
2015,04,21,16,21,11.60
2015,04,21,16,22,11.60
2015,04,21,16,23,11.60
2015,04,21,16,24,11.60
2015,04,21,16,25,11.60
2015,04,21,16,26,11.60
2015,04,21,16,27,11.60
2015,04,21,16,28,11.50
2015,04,21,16,29,11.40
2015,04,21,16,30,11.40
2015,04,21,16,31,11.40
2015,04,21,16,32,11.40
2015,04,21,16,33,11.40
2015,04,21,16,34,11.40
2015,04,21,16,35,11.40
2015,04,21,16,36,11.30
2015,04,21,16,37,11.30
2015,04,21,16,38,11.30
2015,04,21,16,39,11.30
2015,04,21,16,40,11.30
2015,04,21,16,41,11.30
2015,04,21,16,42,11.30
2015,04,21,16,43,11.30
2015,04,21,16,44,11.40
2015,04,21,16,45,11.40
2015,04,21,16,46,11.40
2015,04,21,16,47,11.40
2015,04,21,16,48,11.40
2015,04,21,16,49,11.40
2015,04,21,16,50,11.40
2015,04,21,16,51,11.40
2015,04,21,16,52,11.40
2015,04,21,16,53,11.40
2015,04,21,16,54,11.40
2015,04,21,16,55,11.30
2015,04,21,16,56,11.30
2015,04,21,16,57,11.30
2015,04,21,16,58,11.30
2015,04,21,16,59,11.30
2015,04,21,17,00,11.30
2015,04,21,17,01,11.30
2015,04,21,17,02,11.30
2015,04,21,17,03,11.30
2015,04,21,17,04,11.30
2015,04,21,17,05,11.20
2015,04,21,17,06,11.20
2015,04,21,17,07,11.20
2015,04,21,17,08,11.20
2015,04,21,17,09,11.20
2015,04,21,17,10,11.20
2015,04,21,17,11,11.20
2015,04,21,17,12,11.20
2015,04,21,17,13,11.20
2015,04,21,17,14,11.20
2015,04,21,17,15,11.20
2015,04,21,17,16,11.20
2015,04,21,17,17,11.20
2015,04,21,17,18,11.20
2015,04,21,17,19,11.20
2015,04,21,17,20,11.20
2015,04,21,17,21,11.20
2015,04,21,17,22,11.20
2015,04,21,17,23,11.20
2015,04,21,17,24,11.20
2015,04,21,17,25,11.20
2015,04,21,17,26,11.20
2015,04,21,17,27,11.20
2015,04,21,17,28,11.20
2015,04,21,17,29,11.20
2015,04,21,17,30,11.20
2015,04,21,17,31,11.20
2015,04,21,17,32,11.20
2015,04,21,17,33,11.20
2015,04,21,17,34,11.20
2015,04,21,17,35,11.20
2015,04,21,17,36,11.20
2015,04,21,17,37,11.20
2015,04,21,17,38,11.20
2015,04,21,17,39,11.20
2015,04,21,17,40,11.20
2015,04,21,17,41,11.20
2015,04,21,17,42,11.20
2015,04,21,17,43,11.20
2015,04,21,17,44,11.10
2015,04,21,17,45,11.10
2015,04,21,17,46,11.10
2015,04,21,17,47,11.10
2015,04,21,17,48,11.10
2015,04,21,17,49,11.10
2015,04,21,17,50,11.10
2015,04,21,17,51,11.10
2015,04,21,17,52,11.10
2015,04,21,17,53,11.10
2015,04,21,17,54,11.10
2015,04,21,17,55,11.10
2015,04,21,17,56,11.10
2015,04,21,17,57,11.10
2015,04,21,17,58,11.10
2015,04,21,17,59,11.10
2015,04,21,18,00,11.10
2015,04,21,18,01,11.10
2015,04,21,18,02,11.10
2015,04,21,18,03,11.10
2015,04,21,18,04,11.10
2015,04,21,18,05,11.10
2015,04,21,18,06,11.10
2015,04,21,18,07,11.10
2015,04,21,18,08,11.10
2015,04,21,18,09,11.10
2015,04,21,18,10,11.10
2015,04,21,18,11,11.10
2015,04,21,18,12,11.10
2015,04,21,18,13,11.10
